SCP
0 0 0 0 0 0 0 0 -0 0 0 0 0 0 0 -0 0 0 0 0 -1 -1 -0 -0 -1 -0 -0 0 0 -0 -0 -0 -0 -0 0 0 0 0 0 0 0 0 0 0 0 0 0 0 0
0 0 0 0 0 0 0 -0 -0 0 0 0 0 0 0 0 0 -0 0 -0 -2 -1 -0 -0 -0 -0 -0 -0 -0 -0 -0 -0 -0 -0 -0 0 0 0 0 0 0 0 0 0 0 0 0 0 0
0 0 0 0 0 0 0 -0 0 0 0 0 0 0 0 0 0 0 0 -0 -1 -0 -0 -0 -0 -0 -0 -0 -0 -0 -0 -0 -0 -0 -0 0 -0 0 0 -0 -0 -0 0 0 0 0 0 0 0
0 0 0 0 0 0 0 0 -0 0 0 0 0 0 0 0 0 0 0 -0 -0 -0 -0 -0 -0 -0 -0 -0 -0 -0 -0 -0 -0 -0 -0 0 0 0 0 0 0 0 0 0 0 0 0 0 -0
0 0 0 0 0 0 0 0 -0 0 0 0 0 0 0 0 0 0 0 0 0 -0 -0 0 0 -0 -0 -0 -0 -0 -0 -0 -0 -0 -0 -0 0 0 0 0 0 -0 0 0 0 0 -0 -0 -0
0 0 0 0 0 0 0 0 0 0 0 0 0 0 0 0 0 0 0 0 0 0 0 0 0 0 0 -0 -0 -0 -0 -0 -0 -0 0 0 0 0 0 0 0 0 -0 -0 -0 -0 -0 -0 -0
0 0 0 0 0 0 -0 -0 0 0 0 0 0 0 0 0 1 1 0 0 0 1 1 1 0 0 0 0 0 0 0 0 0 0 0 0 0 0 0 0 0 -0 -0 0 -0 -0 -0 -0 -0
0 0 0 0 0 0 0 0 0 0 0 0 0 0 0 1 2 1 0 0 0 1 1 1 1 0 0 0 0 0 0 0 0 0 0 0 0 0 0 0 0 0 0 0 -0 -0 -0 -0 -0
0 0 0 0 0 0 0 0 0 0 0 0 0 0 0 1 2 1 1 1 0 1 1 0 0 0 0 1 0 0 0 0 0 0 0 0 0 0 0 0 0 0 0 0 0 0 0 0 -0
0 0 0 0 0 0 0 0 0 0 0 0 0 0 0 0 1 1 1 1 1 1 1 0 0 1 0 0 1 1 1 0 0 0 0 0 0 0 0 0 0 0 0 0 0 0 0 0 0
0 0 0 0 0 0 0 0 0 0 0 0 0 0 0 0 0 0 1 0 1 1 1 1 0 1 0 0 2 1 1 1 1 0 0 0 0 0 0 0 0 0 0 0 0 0 0 0 0
0 0 0 0 0 0 0 0 0 0 0 0 0 0 0 0 0 0 1 0 1 1 1 1 1 1 0 0 1 1 0 0 0 0 0 0 0 0 0 0 0 0 0 0 0 0 0 0 0
0 0 0 0 0 0 0 0 0 0 0 0 0 0 0 -0 0 0 0 0 0 2 3 2 1 2 1 2 1 0 0 0 0 0 0 0 0 1 1 0 0 0 0 0 0 0 0 0 0
0 0 0 0 0 0 0 0 0 0 0 0 0 0 0 0 0 0 0 0 0 2 5 1 2 4 1 2 3 1 0 0 0 0 0 1 1 2 1 1 0 0 0 0 0 0 0 0 0
0 0 0 0 0 0 0 0 0 0 0 0 0 0 0 0 0 0 0 0 0 0 3 7 1 2 2 2 7 2 1 1 0 0 1 1 2 1 2 1 1 1 2 1 1 1 1 1 1
0 0 0 0 0 0 0 0 0 -0 -0 -0 -0 0 0 0 0 0 0 0 0 0 2 5 7 5 1 2 6 6 4 0 2 1 2 1 1 2 3 2 1 1 1 1 1 2 1 1 0
0 0 0 0 -0 0 0 0 0 -0 0 0 0 0 0 0 0 0 0 0 0 0 1 1 3 1 1 3 3 7 5 4 2 1 3 3 2 1 4 2 2 2 2 2 1 1 1 2 2
0 0 0 0 -0 0 0 0 0 0 0 -0 -0 0 0 0 0 0 0 -0 0 0 1 5 6 6 1 4 3 4 6 3 1 1 0 0 0 0 3 2 1 2 5 4 2 3 2 3 2
0 -0 -0 0 0 0 0 0 -0 -0 0 0 0 0 0 0 0 0 0 0 -0 0 6 7 3 4 1 6 6 6 7 1 0 0 0 0 0 0 0 0 1 0 2 1 0 1 1 -1 0
0 0 0 0 0 0 0 0 0 0 0 0 0 0 0 -0 0 0 0 0 0 10 13 13 7 9 9 8 2 1 2 2 0 0 0 0 0 0 0 0 0 1 0 1 0 0 2 0 1
0 0 0 0 0 0 0 0 0 0 0 -0 0 0 0 0 0 0 0 3 4 6 10 8 4 3 2 1 2 1 0 0 0 0 0 0 0 0 0 0 0 0 1 1 0 -0 1 -0 0
0 0 0 0 0 0 0 0 -0 0 -0 0 0 0 0 0 0 0 0 1 2 6 4 4 5 3 1 1 1 0 2 1 0 1 0 0 0 0 0 0 -0 -0 0 1 1 1 1 1 1
0 0 0 0 0 0 0 0 0 0 0 0 0 0 0 0 0 0 0 0 1 2 2 4 4 4 2 2 0 0 0 1 2 1 1 2 1 0 0 0 -0 0 0 1 1 1 2 1 1
0 0 0 0 0 0 0 0 0 0 0 0 0 0 0 0 0 0 0 0 0 1 1 3 4 3 2 1 1 0 0 0 1 1 3 7 3 1 1 1 1 1 1 1 1 1 1 1 1
0 0 0 0 0 0 0 0 0 0 0 0 0 0 0 0 0 0 0 0 0 0 0 3 2 1 1 1 1 1 1 2 2 2 5 8 5 3 2 2 2 0 -0 0 1 1 1 1 1
0 0 0 0 0 0 0 0 0 -0 0 0 0 0 0 0 0 0 0 0 0 0 1 1 1 1 2 3 2 2 2 2 4 5 4 5 3 3 2 2 0 2 1 1 1 1 1 1 1
0 0 -0 0 0 0 0 0 0 0 0 0 0 0 0 0 0 0 0 0 1 1 2 2 2 2 1 2 4 4 5 5 4 2 3 3 3 2 3 1 0 0 1 1 1 1 1 1 1
0 0 0 0 0 0 0 0 0 0 0 0 0 0 0 0 0 0 0 0 0 0 1 2 3 3 3 3 1 1 2 2 3 4 3 1 2 1 0 1 1 1 1 1 1 1 1 1 1
0 0 0 0 0 0 0 0 0 0 0 0 0 0 0 0 0 0 0 0 0 0 0 1 1 2 2 2 2 2 2 2 2 2 1 0 0 1 2 2 2 2 1 2 3 2 1 1 1
0 0 0 0 0 0 0 0 0 0 0 0 0 0 0 0 0 0 0 0 0 0 0 0 0 0 0 1 1 1 2 1 2 2 2 3 3 3 2 1 1 1 1 1 2 1 0 0 0
Wind_Speed_500mb
21 15 14 28 14 15 30 37 41 14 10 24 20 14 19 33 25 16 28 25 34 40 51 50 49 49 48 44 39 35 32 30 29 27 25 27 30 32 34 33 30 26 21 18 17 17 19 19 18
19 16 24 23 19 23 28 38 42 7 29 21 8 11 8 34 41 35 31 35 40 35 57 50 48 49 48 45 41 38 35 32 30 26 24 26 30 32 31 31 28 22 17 15 15 17 17 18 17
16 12 24 11 26 32 31 40 21 18 27 12 3 4 13 30 26 19 28 37 37 32 60 52 50 48 48 45 42 39 38 35 33 28 23 25 30 32 31 29 25 20 15 14 16 16 15 15 15
9 14 23 24 41 41 48 47 22 19 10 8 6 8 2 13 9 16 31 38 34 37 48 54 52 49 48 46 43 40 40 38 36 30 24 24 27 31 31 28 24 20 16 15 15 15 14 14 15
24 25 20 31 48 48 45 48 38 13 19 5 13 16 8 25 21 21 33 40 36 38 43 56 52 50 45 44 43 42 44 42 38 32 26 23 26 31 32 29 25 21 18 17 17 16 14 14 14
26 30 27 35 46 44 44 63 57 18 21 14 11 12 21 21 20 23 31 39 36 41 42 53 55 50 44 41 41 43 46 45 41 35 30 27 28 34 35 32 28 23 20 19 19 18 16 14 12
34 26 35 43 42 41 42 54 38 45 33 38 21 26 13 25 28 25 30 36 40 41 42 46 57 54 48 41 43 44 47 47 42 38 33 30 30 35 37 35 30 25 21 20 20 18 16 14 11
39 21 46 41 36 44 45 43 35 37 43 24 32 19 7 10 17 19 25 34 40 38 33 43 61 59 55 52 45 47 48 48 45 42 37 33 32 36 39 37 33 27 24 22 20 18 17 15 12
37 25 24 44 44 35 42 37 44 7 17 16 33 39 34 15 11 16 25 32 41 41 39 32 63 62 58 55 55 52 53 53 49 47 44 40 39 42 45 42 37 32 28 25 22 20 18 17 16
39 28 44 37 40 38 30 32 17 14 16 26 34 30 20 16 14 21 28 36 43 43 43 39 48 57 59 52 60 59 58 58 56 53 50 46 44 46 48 45 41 35 32 29 26 24 24 23 19
55 41 39 43 57 42 27 32 31 19 26 33 35 35 47 34 23 31 33 41 46 46 49 47 47 51 53 50 54 63 62 60 58 55 54 48 46 42 44 42 41 39 36 34 32 30 28 24 18
48 56 54 52 62 39 21 35 37 41 40 41 43 44 49 45 36 36 39 42 46 53 54 57 58 66 58 57 57 56 61 59 59 57 52 47 45 40 37 45 38 42 41 36 33 28 22 20 14
47 46 56 52 46 52 36 39 40 49 45 44 45 47 54 57 25 29 30 43 46 57 72 76 69 73 62 60 58 45 54 46 51 51 52 45 50 43 46 44 33 24 27 26 30 19 24 23 33
50 48 44 53 52 41 41 44 50 55 50 50 52 57 56 61 53 39 43 34 37 33 54 67 66 61 54 67 52 45 40 48 35 38 40 43 51 41 49 45 42 33 26 23 26 31 35 37 33
50 35 35 33 47 52 45 45 48 53 52 56 55 51 54 65 62 56 50 51 44 45 45 52 44 55 54 76 43 51 42 41 39 40 42 38 45 50 42 39 41 50 33 37 30 26 31 34 32
29 39 38 41 45 49 44 45 38 46 48 53 51 48 52 56 60 70 60 57 59 58 52 54 69 63 65 76 59 38 42 39 31 34 40 48 39 49 40 44 37 38 38 37 44 33 42 39 32
36 34 47 45 49 46 49 42 32 52 24 24 27 35 41 48 57 62 66 70 72 54 49 31 61 84 105 66 72 46 39 31 46 35 35 46 45 43 45 35 39 37 37 36 29 27 26 31 34
33 42 43 43 39 25 29 28 31 39 34 39 34 30 32 40 49 59 65 64 62 63 60 57 53 46 51 45 42 46 44 43 43 41 39 25 49 24 53 38 51 34 44 30 30 28 35 33 36
42 44 41 30 39 32 29 34 35 31 38 30 31 28 30 32 37 55 67 60 61 57 58 42 29 36 72 45 42 38 38 44 44 45 39 31 32 12 38 8 46 17 24 39 34 26 35 48 47
44 47 39 31 33 30 24 30 31 32 26 31 27 16 23 31 32 31 52 67 64 40 53 55 40 48 46 48 33 27 19 4 12 20 47 38 30 23 56 33 33 35 35 32 23 25 28 37 44
47 45 38 32 15 20 26 26 32 30 28 41 14 14 20 9 19 32 48 45 36 38 46 53 43 44 44 44 47 28 27 28 31 17 28 30 37 2 17 46 20 36 50 72 32 48 49 49 48
43 39 39 29 27 28 31 27 34 38 37 23 23 16 6 16 22 25 39 38 43 53 52 53 46 35 48 40 45 39 36 46 51 40 51 52 41 34 37 43 34 55 71 61 47 42 55 53 48
38 35 36 35 28 26 35 21 26 22 31 17 24 15 17 4 16 29 17 27 13 47 55 60 52 46 46 54 36 37 36 44 41 41 56 72 70 76 64 43 51 77 79 57 54 57 47 42 34
37 35 36 36 30 31 39 32 25 19 25 27 26 31 23 10 9 15 19 10 13 45 55 61 62 54 52 43 39 43 35 44 58 66 70 70 66 65 79 75 73 76 79 60 56 50 47 45 39
37 30 19 22 24 29 38 35 26 23 15 26 30 38 25 9 22 19 25 24 22 15 1 48 42 49 50 54 54 49 55 62 53 49 67 62 60 62 71 76 67 37 49 62 55 57 53 45 43
37 32 20 30 26 29 39 36 33 37 21 33 31 30 18 11 26 18 18 17 18 15 9 12 26 42 47 52 58 61 61 74 64 54 55 59 61 58 50 64 51 48 55 56 53 53 49 40 39
38 37 40 33 25 13 16 26 25 28 24 27 30 25 23 19 18 15 18 12 14 14 11 6 13 21 30 43 55 54 62 70 67 52 51 62 49 56 55 64 39 42 50 61 52 47 41 36 42
30 30 28 19 27 30 23 12 9 15 20 24 21 27 24 13 19 19 17 22 22 22 22 14 6 3 13 22 27 34 39 41 39 38 41 44 39 46 31 47 39 49 45 46 49 43 39 42 44
28 29 27 19 21 20 18 3 16 9 19 15 18 29 29 13 23 21 22 14 20 27 31 31 29 25 21 19 7 8 9 25 38 24 24 35 18 27 22 33 38 44 46 45 46 44 41 40 35
25 38 37 17 27 12 6 3 20 23 15 28 35 46 20 23 26 25 23 22 22 28 29 27 27 32 27 20 22 23 21 19 18 11 6 6 5 16 12 15 25 29 31 33 40 43 44 45 49
Wind_Direction_500mb
256 262 299 284 258 229 254 252 256 285 335 78 39 355 338 27 39 86 137 124 157 172 164 162 165 165 165 167 167 167 166 160 150 136 124 128 136 138 142 145 142 140 133 123 118 119 117 117 114
232 248 257 272 251 254 248 241 263 144 85 65 26 300 313 71 78 116 124 141 161 174 164 166 169 170 170 170 173 174 174 168 158 146 136 135 144 146 146 151 150 149 143 137 138 133 130 129 127
222 188 244 227 239 244 256 249 293 157 121 130 46 144 334 81 66 100 109 143 168 171 168 168 170 175 174 173 177 180 180 175 169 159 150 145 153 156 158 160 157 157 156 154 152 145 141 138 137
233 231 242 254 239 233 241 274 282 280 81 97 243 322 184 102 92 114 135 152 151 159 169 167 171 178 180 179 180 184 185 182 178 171 165 159 162 166 169 168 170 170 167 161 160 155 153 152 152
228 251 233 234 242 251 266 258 270 236 285 276 184 242 299 118 119 139 149 160 153 158 182 170 173 177 184 183 183 184 187 185 184 182 179 175 174 176 178 181 184 181 175 171 174 167 169 171 166
221 230 245 237 250 249 246 264 282 263 237 249 282 277 265 135 144 143 150 161 160 165 184 176 174 178 182 188 185 187 188 188 189 190 190 189 188 187 188 191 192 190 184 182 184 180 181 186 179
245 236 235 251 258 256 240 244 246 262 224 236 256 263 272 32 132 141 154 163 164 180 192 184 178 180 182 190 188 190 191 192 195 198 200 200 200 197 196 198 198 198 197 194 193 193 194 198 197
240 270 260 250 251 259 267 269 247 242 252 227 265 273 213 110 110 145 165 170 171 174 192 188 184 183 186 182 191 189 193 196 199 203 207 209 208 206 203 204 203 205 206 208 208 205 205 206 211
221 241 258 253 257 265 269 271 264 346 300 262 257 258 253 136 154 177 179 180 181 178 196 198 186 188 189 189 187 192 197 200 203 207 210 212 213 208 207 207 207 209 212 212 214 217 220 219 220
226 228 239 253 278 274 301 330 316 289 236 245 267 257 232 175 202 217 196 192 190 185 190 190 188 193 191 197 194 194 200 205 206 210 213 215 215 210 210 210 214 215 216 219 220 223 225 226 229
225 237 251 240 246 288 306 308 313 301 267 260 261 249 250 248 220 224 226 208 200 196 193 196 192 203 189 189 206 201 203 207 210 214 218 217 212 212 213 217 218 223 224 224 224 227 234 236 232
231 233 241 259 274 279 276 279 272 272 264 263 264 268 270 269 207 217 222 225 208 198 196 201 202 203 194 187 213 208 207 209 214 216 222 216 201 205 217 220 231 233 235 234 236 239 250 235 212
233 242 242 254 258 275 273 260 264 263 259 260 259 259 263 267 242 215 236 227 227 208 199 200 207 203 198 188 211 215 200 213 217 220 223 218 198 207 216 210 233 246 251 234 246 234 266 261 230
234 241 249 251 256 249 251 257 257 256 256 253 250 252 250 259 262 213 240 252 246 236 221 198 197 205 206 189 202 206 196 209 210 221 227 228 210 204 228 223 215 228 232 235 243 229 229 239 255
263 252 238 241 247 252 249 254 252 261 253 251 249 238 245 252 254 251 226 243 253 250 256 215 178 206 209 202 181 199 200 194 208 209 223 238 218 216 228 233 216 218 207 217 222 229 237 238 247
257 243 249 243 239 238 236 253 252 251 231 231 233 238 240 237 246 249 245 236 240 248 249 211 187 196 218 210 193 190 190 201 197 208 227 235 238 228 231 223 232 229 222 231 229 231 231 251 267
226 238 236 248 242 218 209 239 248 251 248 271 257 243 235 240 237 242 241 236 241 241 239 236 212 216 204 209 198 184 199 202 198 207 209 211 244 240 217 230 223 234 221 221 234 241 244 256 264
222 225 242 250 235 194 227 216 252 267 249 249 247 246 237 239 234 233 235 235 227 234 236 232 192 191 174 201 191 195 209 210 208 211 222 215 207 215 196 230 231 240 206 217 230 228 242 245 248
245 241 226 242 235 178 222 245 231 242 254 258 244 244 226 246 248 223 219 222 230 237 223 216 185 190 200 200 189 202 207 222 221 222 235 239 254 246 190 238 255 252 231 219 227 236 278 271 262
237 252 251 247 236 187 203 240 244 246 249 246 254 298 231 228 225 225 204 215 223 196 199 211 194 188 193 192 187 188 196 230 237 261 254 266 279 299 267 201 269 288 261 231 263 238 242 262 263
225 235 244 252 237 267 262 255 253 260 246 252 211 243 278 297 202 209 211 172 174 192 204 215 221 218 219 222 204 212 258 286 259 239 241 252 254 199 223 226 267 266 270 249 243 242 235 249 261
228 223 244 234 239 241 201 249 248 226 227 202 213 204 30 15 164 168 168 189 200 196 207 212 213 215 215 219 215 218 226 210 248 220 254 264 257 257 223 230 221 230 235 226 226 221 240 238 227
231 218 221 242 242 248 253 255 263 224 181 202 188 152 108 8 30 43 155 165 213 207 209 205 207 210 209 212 220 215 237 226 231 230 246 250 252 241 234 222 199 223 231 225 225 227 217 226 226
219 232 221 216 224 229 233 242 245 232 207 190 181 144 112 81 77 49 50 81 201 215 213 212 207 206 210 222 225 228 257 250 234 232 224 234 244 231 233 236 221 238 222 218 221 216 222 226 225
227 217 217 222 226 238 225 224 235 240 240 193 149 121 125 130 94 44 32 11 4 353 290 189 204 219 225 229 233 236 247 239 257 245 226 231 228 222 225 224 225 229 240 219 213 217 226 226 228
215 216 219 215 217 236 222 223 216 228 155 113 102 95 117 117 73 50 56 2 346 347 322 247 227 231 234 242 241 237 242 235 240 236 229 240 239 237 223 211 215 257 214 221 220 215 224 229 238
200 211 232 250 275 257 255 248 81 101 121 135 143 152 112 102 98 71 64 34 42 31 23 342 253 246 234 231 234 241 239 240 241 253 245 237 235 233 219 207 224 217 219 216 220 217 233 240 245
246 216 228 250 242 245 249 210 107 183 154 162 158 136 123 133 111 101 71 81 70 62 47 38 43 281 180 215 246 244 247 249 236 237 246 248 223 213 201 203 200 195 208 211 222 229 231 236 251
203 218 242 245 272 253 218 65 352 17 49 47 15 143 138 136 123 117 107 94 72 64 67 62 64 51 47 35 5 330 288 234 229 251 263 267 124 163 169 171 194 200 210 217 223 236 230 233 247
288 218 213 220 248 250 44 231 326 347 80 70 53 303 138 108 108 92 93 90 91 88 79 58 59 72 86 87 101 96 100 97 82 96 139 237 123 160 142 190 218 229 233 241 249 255 263 257 259
Wind_Speed_850mb
21 15 14 28 14 15 30 37 41 14 10 24 20 14 19 33 25 16 28 25 34 40 51 50 49 49 48 44 39 35 32 30 29 27 25 27 30 32 34 33 30 26 21 18 17 17 19 19 18
19 16 24 23 19 23 28 38 42 7 29 21 8 11 8 34 41 35 31 35 40 35 57 50 48 49 48 45 41 38 35 32 30 26 24 26 30 32 31 31 28 22 17 15 15 17 17 18 17
16 12 24 11 26 32 31 40 21 18 27 12 3 4 13 30 26 19 28 37 37 32 60 52 50 48 48 45 42 39 38 35 33 28 23 25 30 32 31 29 25 20 15 14 16 16 15 15 15
9 14 23 24 41 41 48 47 22 19 10 8 6 8 2 13 9 16 31 38 34 37 48 54 52 49 48 46 43 40 40 38 36 30 24 24 27 31 31 28 24 20 16 15 15 15 14 14 15
24 25 20 31 48 48 45 48 38 13 19 5 13 16 8 25 21 21 33 40 36 38 43 56 52 50 45 44 43 42 44 42 38 32 26 23 26 31 32 29 25 21 18 17 17 16 14 14 14
26 30 27 35 46 44 44 63 57 18 21 14 11 12 21 21 20 23 31 39 36 41 42 53 55 50 44 41 41 43 46 45 41 35 30 27 28 34 35 32 28 23 20 19 19 18 16 14 12
34 26 35 43 42 41 42 54 38 45 33 38 21 26 13 25 28 25 30 36 40 41 42 46 57 54 48 41 43 44 47 47 42 38 33 30 30 35 37 35 30 25 21 20 20 18 16 14 11
39 21 46 41 36 44 45 43 35 37 43 24 32 19 7 10 17 19 25 34 40 38 33 43 61 59 55 52 45 47 48 48 45 42 37 33 32 36 39 37 33 27 24 22 20 18 17 15 12
37 25 24 44 44 35 42 37 44 7 17 16 33 39 34 15 11 16 25 32 41 41 39 32 63 62 58 55 55 52 53 53 49 47 44 40 39 42 45 42 37 32 28 25 22 20 18 17 16
39 28 44 37 40 38 30 32 17 14 16 26 34 30 20 16 14 21 28 36 43 43 43 39 48 57 59 52 60 59 58 58 56 53 50 46 44 46 48 45 41 35 32 29 26 24 24 23 19
55 41 39 43 57 42 27 32 31 19 26 33 35 35 47 34 23 31 33 41 46 46 49 47 47 51 53 50 54 63 62 60 58 55 54 48 46 42 44 42 41 39 36 34 32 30 28 24 18
48 56 54 52 62 39 21 35 37 41 40 41 43 44 49 45 36 36 39 42 46 53 54 57 58 66 58 57 57 56 61 59 59 57 52 47 45 40 37 45 38 42 41 36 33 28 22 20 14
47 46 56 52 46 52 36 39 40 49 45 44 45 47 54 57 25 29 30 43 46 57 72 76 69 73 62 60 58 45 54 46 51 51 52 45 50 43 46 44 33 24 27 26 30 19 24 23 33
50 48 44 53 52 41 41 44 50 55 50 50 52 57 56 61 53 39 43 34 37 33 54 67 66 61 54 67 52 45 40 48 35 38 40 43 51 41 49 45 42 33 26 23 26 31 35 37 33
50 35 35 33 47 52 45 45 48 53 52 56 55 51 54 65 62 56 50 51 44 45 45 52 44 55 54 76 43 51 42 41 39 40 42 38 45 50 42 39 41 50 33 37 30 26 31 34 32
29 39 38 41 45 49 44 45 38 46 48 53 51 48 52 56 60 70 60 57 59 58 52 54 69 63 65 76 59 38 42 39 31 34 40 48 39 49 40 44 37 38 38 37 44 33 42 39 32
36 34 47 45 49 46 49 42 32 52 24 24 27 35 41 48 57 62 66 70 72 54 49 31 61 84 105 66 72 46 39 31 46 35 35 46 45 43 45 35 39 37 37 36 29 27 26 31 34
33 42 43 43 39 25 29 28 31 39 34 39 34 30 32 40 49 59 65 64 62 63 60 57 53 46 51 45 42 46 44 43 43 41 39 25 49 24 53 38 51 34 44 30 30 28 35 33 36
42 44 41 30 39 32 29 34 35 31 38 30 31 28 30 32 37 55 67 60 61 57 58 42 29 36 72 45 42 38 38 44 44 45 39 31 32 12 38 8 46 17 24 39 34 26 35 48 47
44 47 39 31 33 30 24 30 31 32 26 31 27 16 23 31 32 31 52 67 64 40 53 55 40 48 46 48 33 27 19 4 12 20 47 38 30 23 56 33 33 35 35 32 23 25 28 37 44
47 45 38 32 15 20 26 26 32 30 28 41 14 14 20 9 19 32 48 45 36 38 46 53 43 44 44 44 47 28 27 28 31 17 28 30 37 2 17 46 20 36 50 72 32 48 49 49 48
43 39 39 29 27 28 31 27 34 38 37 23 23 16 6 16 22 25 39 38 43 53 52 53 46 35 48 40 45 39 36 46 51 40 51 52 41 34 37 43 34 55 71 61 47 42 55 53 48
38 35 36 35 28 26 35 21 26 22 31 17 24 15 17 4 16 29 17 27 13 47 55 60 52 46 46 54 36 37 36 44 41 41 56 72 70 76 64 43 51 77 79 57 54 57 47 42 34
37 35 36 36 30 31 39 32 25 19 25 27 26 31 23 10 9 15 19 10 13 45 55 61 62 54 52 43 39 43 35 44 58 66 70 70 66 65 79 75 73 76 79 60 56 50 47 45 39
37 30 19 22 24 29 38 35 26 23 15 26 30 38 25 9 22 19 25 24 22 15 1 48 42 49 50 54 54 49 55 62 53 49 67 62 60 62 71 76 67 37 49 62 55 57 53 45 43
37 32 20 30 26 29 39 36 33 37 21 33 31 30 18 11 26 18 18 17 18 15 9 12 26 42 47 52 58 61 61 74 64 54 55 59 61 58 50 64 51 48 55 56 53 53 49 40 39
38 37 40 33 25 13 16 26 25 28 24 27 30 25 23 19 18 15 18 12 14 14 11 6 13 21 30 43 55 54 62 70 67 52 51 62 49 56 55 64 39 42 50 61 52 47 41 36 42
30 30 28 19 27 30 23 12 9 15 20 24 21 27 24 13 19 19 17 22 22 22 22 14 6 3 13 22 27 34 39 41 39 38 41 44 39 46 31 47 39 49 45 46 49 43 39 42 44
28 29 27 19 21 20 18 3 16 9 19 15 18 29 29 13 23 21 22 14 20 27 31 31 29 25 21 19 7 8 9 25 38 24 24 35 18 27 22 33 38 44 46 45 46 44 41 40 35
25 38 37 17 27 12 6 3 20 23 15 28 35 46 20 23 26 25 23 22 22 28 29 27 27 32 27 20 22 23 21 19 18 11 6 6 5 16 12 15 25 29 31 33 40 43 44 45 49
Wind_Direction_850mb
256 262 299 284 258 229 254 252 256 285 335 78 39 355 338 27 39 86 137 124 157 172 164 162 165 165 165 167 167 167 166 160 150 136 124 128 136 138 142 145 142 140 133 123 118 119 117 117 114
232 248 257 272 251 254 248 241 263 144 85 65 26 300 313 71 78 116 124 141 161 174 164 166 169 170 170 170 173 174 174 168 158 146 136 135 144 146 146 151 150 149 143 137 138 133 130 129 127
222 188 244 227 239 244 256 249 293 157 121 130 46 144 334 81 66 100 109 143 168 171 168 168 170 175 174 173 177 180 180 175 169 159 150 145 153 156 158 160 157 157 156 154 152 145 141 138 137
233 231 242 254 239 233 241 274 282 280 81 97 243 322 184 102 92 114 135 152 151 159 169 167 171 178 180 179 180 184 185 182 178 171 165 159 162 166 169 168 170 170 167 161 160 155 153 152 152
228 251 233 234 242 251 266 258 270 236 285 276 184 242 299 118 119 139 149 160 153 158 182 170 173 177 184 183 183 184 187 185 184 182 179 175 174 176 178 181 184 181 175 171 174 167 169 171 166
221 230 245 237 250 249 246 264 282 263 237 249 282 277 265 135 144 143 150 161 160 165 184 176 174 178 182 188 185 187 188 188 189 190 190 189 188 187 188 191 192 190 184 182 184 180 181 186 179
245 236 235 251 258 256 240 244 246 262 224 236 256 263 272 32 132 141 154 163 164 180 192 184 178 180 182 190 188 190 191 192 195 198 200 200 200 197 196 198 198 198 197 194 193 193 194 198 197
240 270 260 250 251 259 267 269 247 242 252 227 265 273 213 110 110 145 165 170 171 174 192 188 184 183 186 182 191 189 193 196 199 203 207 209 208 206 203 204 203 205 206 208 208 205 205 206 211
221 241 258 253 257 265 269 271 264 346 300 262 257 258 253 136 154 177 179 180 181 178 196 198 186 188 189 189 187 192 197 200 203 207 210 212 213 208 207 207 207 209 212 212 214 217 220 219 220
226 228 239 253 278 274 301 330 316 289 236 245 267 257 232 175 202 217 196 192 190 185 190 190 188 193 191 197 194 194 200 205 206 210 213 215 215 210 210 210 214 215 216 219 220 223 225 226 229
225 237 251 240 246 288 306 308 313 301 267 260 261 249 250 248 220 224 226 208 200 196 193 196 192 203 189 189 206 201 203 207 210 214 218 217 212 212 213 217 218 223 224 224 224 227 234 236 232
231 233 241 259 274 279 276 279 272 272 264 263 264 268 270 269 207 217 222 225 208 198 196 201 202 203 194 187 213 208 207 209 214 216 222 216 201 205 217 220 231 233 235 234 236 239 250 235 212
233 242 242 254 258 275 273 260 264 263 259 260 259 259 263 267 242 215 236 227 227 208 199 200 207 203 198 188 211 215 200 213 217 220 223 218 198 207 216 210 233 246 251 234 246 234 266 261 230
234 241 249 251 256 249 251 257 257 256 256 253 250 252 250 259 262 213 240 252 246 236 221 198 197 205 206 189 202 206 196 209 210 221 227 228 210 204 228 223 215 228 232 235 243 229 229 239 255
263 252 238 241 247 252 249 254 252 261 253 251 249 238 245 252 254 251 226 243 253 250 256 215 178 206 209 202 181 199 200 194 208 209 223 238 218 216 228 233 216 218 207 217 222 229 237 238 247
257 243 249 243 239 238 236 253 252 251 231 231 233 238 240 237 246 249 245 236 240 248 249 211 187 196 218 210 193 190 190 201 197 208 227 235 238 228 231 223 232 229 222 231 229 231 231 251 267
226 238 236 248 242 218 209 239 248 251 248 271 257 243 235 240 237 242 241 236 241 241 239 236 212 216 204 209 198 184 199 202 198 207 209 211 244 240 217 230 223 234 221 221 234 241 244 256 264
222 225 242 250 235 194 227 216 252 267 249 249 247 246 237 239 234 233 235 235 227 234 236 232 192 191 174 201 191 195 209 210 208 211 222 215 207 215 196 230 231 240 206 217 230 228 242 245 248
245 241 226 242 235 178 222 245 231 242 254 258 244 244 226 246 248 223 219 222 230 237 223 216 185 190 200 200 189 202 207 222 221 222 235 239 254 246 190 238 255 252 231 219 227 236 278 271 262
237 252 251 247 236 187 203 240 244 246 249 246 254 298 231 228 225 225 204 215 223 196 199 211 194 188 193 192 187 188 196 230 237 261 254 266 279 299 267 201 269 288 261 231 263 238 242 262 263
225 235 244 252 237 267 262 255 253 260 246 252 211 243 278 297 202 209 211 172 174 192 204 215 221 218 219 222 204 212 258 286 259 239 241 252 254 199 223 226 267 266 270 249 243 242 235 249 261
228 223 244 234 239 241 201 249 248 226 227 202 213 204 30 15 164 168 168 189 200 196 207 212 213 215 215 219 215 218 226 210 248 220 254 264 257 257 223 230 221 230 235 226 226 221 240 238 227
231 218 221 242 242 248 253 255 263 224 181 202 188 152 108 8 30 43 155 165 213 207 209 205 207 210 209 212 220 215 237 226 231 230 246 250 252 241 234 222 199 223 231 225 225 227 217 226 226
219 232 221 216 224 229 233 242 245 232 207 190 181 144 112 81 77 49 50 81 201 215 213 212 207 206 210 222 225 228 257 250 234 232 224 234 244 231 233 236 221 238 222 218 221 216 222 226 225
227 217 217 222 226 238 225 224 235 240 240 193 149 121 125 130 94 44 32 11 4 353 290 189 204 219 225 229 233 236 247 239 257 245 226 231 228 222 225 224 225 229 240 219 213 217 226 226 228
215 216 219 215 217 236 222 223 216 228 155 113 102 95 117 117 73 50 56 2 346 347 322 247 227 231 234 242 241 237 242 235 240 236 229 240 239 237 223 211 215 257 214 221 220 215 224 229 238
200 211 232 250 275 257 255 248 81 101 121 135 143 152 112 102 98 71 64 34 42 31 23 342 253 246 234 231 234 241 239 240 241 253 245 237 235 233 219 207 224 217 219 216 220 217 233 240 245
246 216 228 250 242 245 249 210 107 183 154 162 158 136 123 133 111 101 71 81 70 62 47 38 43 281 180 215 246 244 247 249 236 237 246 248 223 213 201 203 200 195 208 211 222 229 231 236 251
203 218 242 245 272 253 218 65 352 17 49 47 15 143 138 136 123 117 107 94 72 64 67 62 64 51 47 35 5 330 288 234 229 251 263 267 124 163 169 171 194 200 210 217 223 236 230 233 247
288 218 213 220 248 250 44 231 326 347 80 70 53 303 138 108 108 92 93 90 91 88 79 58 59 72 86 87 101 96 100 97 82 96 139 237 123 160 142 190 218 229 233 241 249 255 263 257 259